KE0YON Weather Reports


time (UTC)temp
C
wind
direction
speed
KPH
gust
KPH
rain 1hr
cm
rain 24hr
cm
rain mn
cm
humidity
%
barometer
mb
20260507223026 20 119 8.0 12.9 0.00 0.00 0.00 23 1013.1
20260507221519 21 123 8.0 12.9 0.00 0.00 0.00 24 1013.2
20260507220022 21 215 6.4 19.3 0.00 0.00 0.00 23 1013.5
20260507214530 21 161 3.2 17.7 0.00 0.00 0.00 22 1013.5
20260507213012 21 301 9.7 16.1 0.00 0.00 0.00 22 1013.8
20260507211517 21 141 9.7 14.5 0.00 0.00 0.00 22 1014.0
20260507210022 21 44 6.4 20.9 0.00 0.00 0.00 19 1014.4
20260507204525 21 240 11.3 16.1 0.00 0.00 0.00 19 1014.5
20260507203028 20 236 11.3 20.9 0.00 0.03 0.00 17 1014.9
20260507201516 20 275 9.7 22.5 0.00 0.03 0.00 19 1015.1
20260507200020 20 285 4.8 14.5 0.00 0.03 0.00 20 1015.4
20260507194523 20 264 3.2 20.9 0.00 0.03 0.00 23 1015.5
20260507193027 20 194 8.0 14.5 0.00 0.03 0.00 19 1015.6
20260507191528 20 297 8.0 16.1 0.00 0.03 0.00 19 1015.8
20260507190018 20 207 9.7 20.9 0.00 0.03 0.00 22 1015.9
20260507184522 18 203 6.4 20.9 0.00 0.05 0.00 21 1016.1
20260507183024 18 249 14.5 19.3 0.00 0.08 0.00 23 1016.3
20260507181526 17 250 9.7 25.7 0.00 0.08 0.00 23 1016.6
20260507180026 17 4 8.0 24.1 0.00 0.08 0.00 24 1016.7
20260507174540 16 318 11.3 24.1 0.00 0.10 0.00 29 1017.0
20260507173024 16 252 20.9 30.6 0.00 0.10 0.00 34 1017.2
20260507171539 16 295 20.9 32.2 0.00 0.10 0.00 31 1017.4
20260507170028 16 271 29.0 35.4 0.00 0.10 0.00 33 1017.4
20260507164528 15 260 27.4 35.4 0.00 0.13 0.00 35 1017.5
20260507163023 15 242 25.7 32.2 0.00 0.13 0.00 32 1017.5
20260507161525 14 288 22.5 33.8 0.00 0.13 0.00 40 1017.6
20260507154528 13 302 22.5 32.2 0.00 0.18 0.00 42 1017.8
20260507153029 12 349 11.3 25.7 0.00 0.20 0.00 44 1017.9
20260507151523 11 263 24.1 41.8 0.00 0.20 0.00 46 1018.0
20260507144526 9 278 25.7 37.0 0.00 0.20 0.00 49 1018.0
20260507143027 8 271 27.4 38.6 0.00 0.20 0.00 49 1018.1
20260507141526 8 259 24.1 38.6 0.00 0.20 0.00 49 1018.0
20260507140036 7 240 22.5 45.1 0.00 0.20 0.00 48 1018.1
20260507134526 7 282 38.6 54.7 0.00 0.20 0.00 47 1017.8
20260507133026 6 295 25.7 33.8 0.00 0.20 0.00 51 1018.1
20260507113007 4 276 19.3 41.8 0.00 0.23 0.00 56 1018.3
20260507111513 4 284 32.2 40.2 0.00 0.23 0.00 56 1018.1
20260507110018 3 227 8.0 19.3 0.00 0.23 0.00 59 1018.5
20260507104523 1 9 0.0 9.7 0.00 0.23 0.00 74 1018.7
20260507103005 1 76 1.6 9.7 0.00 0.23 0.00 77 1018.8
20260507101520 0 200 1.6 4.8 0.00 0.23 0.00 82 1018.8
20260507100029 1 129 0.0 8.0 0.00 0.23 0.00 83 1019.1
20260507094518 0 31 0.0 3.2 0.00 0.23 0.00 84 1019.2
20260507093028 0 8 1.6 14.5 0.00 0.23 0.00 85 1019.5
20260507091508 0 11 9.7 12.9 0.00 0.23 0.00 88 1019.5
20260507090008 0 352 11.3 16.1 0.00 0.23 0.00 87 1019.5
20260507084538 0 325 14.5 19.3 0.00 0.23 0.00 87 1019.6
20260507083023 0 344 14.5 19.3 0.00 0.23 0.00 87 1019.5
20260507081521 0 5 14.5 17.7 0.00 0.23 0.00 88 1019.7
20260507080007 0 345 8.0 11.3 0.00 0.23 0.00 86 1020.0
20260507074511 0 334 8.0 12.9 0.00 0.23 0.00 85 1020.1
20260507073023 0 345 8.0 12.9 0.00 0.25 0.00 83 1020.1
20260507071522 1 255 3.2 4.8 0.00 0.25 0.00 83 1020.3
20260507070025 0 303 3.2 4.8 0.00 0.30 0.00 86 1020.4
20260507064508 1 330 0.0 0.0 0.00 0.36 0.00 86 1020.6
20260507063015 0 330 0.0 1.6 0.00 0.38 0.00 88 1020.4
20260507061517 0 330 1.6 1.6 0.00 0.43 0.00 88 1020.6
20260507060032 0 158 0.0 1.6 0.00 0.43 0.00 88 1020.5
20260507054535 0 198 0.0 3.2 0.00 0.43 0.43 88 1020.2
20260507053029 0 189 0.0 3.2 0.00 0.43 0.43 88 1020.2
20260507051514 1 227 1.6 4.8 0.00 0.46 0.43 88 1020.2
20260507050036 1 210 1.6 3.2 0.00 0.46 0.43 88 1020.2
20260507044525 1 228 0.0 6.4 0.00 0.46 0.43 87 1020.3
20260507043026 1 172 1.6 4.8 0.00 0.46 0.43 87 1020.2
20260507041527 1 215 1.6 1.6 0.00 0.48 0.43 87 1020.4
20260507040016 1 212 1.6 3.2 0.00 0.48 0.43 86 1020.3
20260507034524 1 209 1.6 4.8 0.00 0.51 0.43 86 1020.3
20260507033030 2 169 3.2 6.4 0.00 0.51 0.43 86 1020.4
20260507031530 2 175 3.2 6.4 0.00 0.53 0.43 86 1020.4
20260507030034 2 203 3.2 6.4 0.00 0.53 0.43 85 1020.3
20260507024518 2 190 3.2 6.4 0.00 0.56 0.43 84 1020.2
20260507023020 2 138 4.8 8.0 0.00 0.56 0.43 82 1020.2
20260507021540 3 150 6.4 8.0 0.00 0.56 0.43 78 1020.2
20260507020027 3 199 3.2 6.4 0.00 0.56 0.43 77 1020.2
20260507014525 4 191 4.8 8.0 0.00 0.56 0.43 74 1020.2
20260507013016 4 153 6.4 14.5 0.00 0.56 0.43 74 1020.2
20260507011528 5 141 8.0 17.7 0.00 0.56 0.43 73 1019.9
20260507010034 6 217 6.4 12.9 0.00 0.58 0.43 68 1019.9
20260507004526 5 200 6.4 11.3 0.00 0.58 0.43 72 1020.0
20260507003029 5 225 6.4 11.3 0.00 0.61 0.43 74 1019.9
20260507001522 5 211 6.4 14.5 0.00 0.64 0.43 76 1020.2
20260507000022 5 212 8.0 17.7 0.00 0.76 0.43 73 1020.1
20260506234524 6 209 6.4 12.9 0.00 0.84 0.43 70 1019.7
20260506233026 6 221 8.0 12.9 0.00 0.86 0.43 75 1020.0
20260506231529 5 226 6.4 11.3 0.00 0.89 0.43 76 1020.1
20260506230025 4 242 8.0 12.9 0.00 0.89 0.43 80 1020.0
20260506224526 3 222 8.0 14.5 0.00 0.89 0.43 85 1020.0